Regional Weather Roundup
Issued by NWS Newport/Morehead, NC

Current Version | Previous Version | Graphics & Text | Print | Product List | Glossary On
Versions: 1 2 3 4 5 6 7 8 9 10 11 12 13 14 15 16 17 18 19 20 21 22 23 24 25 26 27 28 29 30 31 32 33 34 35 36 37 38 39 40 41 42 43 44 45 46 47 48 49 50
000 ASUS42 KMHX 050512 RWRMHX WEATHER ROUNDUP FOR EASTERN NORTH CAROLINA NATIONAL WEATHER SERVICE NEWPORT/MOREHEAD CITY NC 1200 AM EST THU MAR 05 2015 NOTE: "FAIR" INDICATES FEW OR NO CLOUDS BELOW 12,000 FEET WITH NO SIGNIFICANT WEATHER AND/OR OBSTRUCTIONS TO VISIBILITY NCZ015>017-031-032-045>047-102-103-050600- NORTH COAST CITY SKY/WX TMP DP RH WIND PRES REMARKS EDENTON CLEAR 61 58 89 S9 29.91F ELIZABETH CITY PTCLDY 62 58 86 S16G24 29.89F KITTY HAWK PTCLDY 61 59 95 SW9G20 29.92S MANTEO PTCLDY 54 52 94 S14 29.94S $$ NCZ045>047-081-094-103-104-050600- CENTRAL COAST CITY SKY/WX TMP DP RH WIND PRES REMARKS FRISCO FOG 57 57 100 SW12G20 29.98F VSB 1/2 SWANQUARTER N/A 55 N/A N/A S15 29.91S $$ NCZ095-097-098-100-101-050600- SOUTHERN COAST CITY SKY/WX TMP DP RH WIND PRES REMARKS BEAUFORT CLOUDY 56 56 100 SW10 30.00S FOG CEDAR ISLAND N/A 63 N/A N/A S14G21 30.00F JACKSONVILLE CLEAR 67 62 84 SW12G18 29.98S PINEY ISLAND N/A N/A N/A N/A MISG 29.99S WILMINGTON CLOUDY 67 65 93 SW17G24 29.99F $$ NCZ011>013-027>030-043-044-078>080-089-090>093-098-050600- COASTAL PLAIN CITY SKY/WX TMP DP RH WIND PRES REMARKS AHOSKIE CLEAR 63 58 84 SW3 29.88S CLINTON CLEAR 65 63 91 S7 29.95S ELIZABETHTOWN CLEAR 67 62 83 S12 29.96F GOLDSBORO CLEAR 65 65 99 S10 29.90F GREENVILLE CLEAR 64 61 88 SW13 29.94F HAVELOCK PTCLDY 64 60 87 SW17 29.99F KENANSVILLE PTCLDY 65 60 84 S5 29.96F KINSTON CLEAR 65 61 86 S14 29.94F NEW BERN CLEAR 65 60 84 SW10 29.98S RICHLANDS CLEAR 64 61 88 S14 29.98S ROCKY MOUNT FAIR 66 60 81 S12 29.89F WASHINGTON CLEAR 66 60 81 SW12G20 29.93F WHITEVILLE CLEAR 67 62 84 S12 29.98S $$ AMZ130-135-150-152-154-156-158-170-250-252-270-ANZ085-086-088-633-658-670-050600- MARINE OBSERVATIONS STATION/POSITION TIME TEMP WIND PRES WAVE SWELL AIR SEA DIR/SP/G HT/PER HT/PER (UTC) (F) (DEG/KT/KT) (MB) (FT/S) (FT/S) CHESAPEAKE LIGHT 0400 50 250/ 13/ 14 1012.7 64 E VA BEACH 0450 55 52 210/ 21/ 25 1012.0 7/ 7 2/ 9 DUCK 0400 59 36 200/ 18/ 22 1012.0 2 E DUCK 0411 37 N/A 3/10 2/11 10 NE DUCK 0422 38 N/A 4/ 7 2/11 OREGON INLET 0400 52 49 200/ 18/ 21 1014.4 HATTERAS CG 0400 59 47 220/ 13/ 17 1015.7 CAPE LOOKOUT 0500 59 230/ 9/ 12 1015.7 BEAUFORT LAB 0400 55 46 240/ 4/ 9 1015.0 27 SE WRIGHTSVLE NOT AVBL 5 SE WRIGHTSVLE NOT AVBL 225 S CAPE HAT 0450 73 74 220/ 19/ 23 1021.1 6/10 3/10 41 SE CHARLESTON 0450 72 69 200/ 19/ 23 1016.1 7/ 7 2/ 9 $$

USA.gov is the U.S. government's official web portal to all federal, state and local government web resources and services.